TimeEST,TemperatureF,Dew PointF,Humidity,Sea Level PressureIn,VisibilityMPH,Wind Direction,Wind SpeedMPH,Gust SpeedMPH,PrecipitationIn,Events,Conditions,WindDirDegrees,DateUTC
12:17 AM,37.4,33.8,87,29.74,10.0,NNW,8.1,-,0.00,,Overcast,330,2012-12-11 05:17:00
12:29 AM,37.4,33.8,87,29.75,10.0,WNW,4.6,-,0.00,,Overcast,300,2012-12-11 05:29:00
12:54 AM,36.0,34.0,93,29.80,9.0,WNW,4.6,-,0.00,,Overcast,300,2012-12-11 05:54:00
1:36 AM,35.6,33.8,93,29.76,5.0,NNW,11.5,-,0.00,,Overcast,330,2012-12-11 06:36:00
1:54 AM,35.1,33.1,92,29.81,10.0,NW,5.8,-,0.00,,Overcast,320,2012-12-11 06:54:00
2:02 AM,35.6,33.8,93,29.77,10.0,NW,8.1,-,N/A,,Overcast,320,2012-12-11 07:02:00
2:54 AM,35.1,32.0,89,29.84,10.0,NNW,5.8,-,N/A,,Overcast,330,2012-12-11 07:54:00
3:54 AM,35.1,32.0,89,29.85,10.0,Calm,Calm,-,N/A,,Overcast,0,2012-12-11 08:54:00
4:54 AM,34.0,30.0,85,29.88,10.0,NNW,9.2,-,N/A,,Overcast,330,2012-12-11 09:54:00
5:45 AM,33.8,28.4,81,29.85,10.0,NNW,6.9,-,N/A,,Overcast,340,2012-12-11 10:45:00
5:54 AM,33.1,28.9,85,29.90,10.0,NNW,4.6,-,N/A,,Overcast,340,2012-12-11 10:54:00
6:54 AM,33.1,28.9,85,29.95,10.0,NNW,5.8,-,N/A,,Overcast,330,2012-12-11 11:54:00
7:54 AM,33.1,26.1,75,29.97,10.0,NW,3.5,-,N/A,,Overcast,310,2012-12-11 12:54:00
8:08 AM,33.8,24.8,70,29.93,10.0,WNW,3.5,-,N/A,,Overcast,300,2012-12-11 13:08:00
8:54 AM,33.1,26.1,75,29.98,9.0,NW,3.5,-,0.00,Snow,Light Snow,310,2012-12-11 13:54:00
9:18 AM,33.8,24.8,70,29.95,10.0,WNW,3.5,-,0.00,,Overcast,300,2012-12-11 14:18:00
9:54 AM,34.0,26.1,73,30.01,10.0,NW,4.6,-,0.00,,Overcast,310,2012-12-11 14:54:00
10:36 AM,35.6,26.6,70,29.97,10.0,North,5.8,-,N/A,,Overcast,350,2012-12-11 15:36:00
10:52 AM,33.8,26.6,75,29.98,10.0,North,6.9,-,N/A,,Overcast,350,2012-12-11 15:52:00
10:54 AM,34.0,27.0,75,30.02,10.0,NNW,8.1,-,N/A,,Overcast,340,2012-12-11 15:54:00
11:40 AM,33.8,28.4,81,29.98,6.0,NNW,8.1,-,0.00,Snow,Light Snow,340,2012-12-11 16:40:00
11:54 AM,34.0,28.0,79,30.03,9.0,North,4.6,-,0.00,Snow,Light Snow,350,2012-12-11 16:54:00
12:54 PM,35.1,27.0,72,30.04,10.0,NNW,4.6,-,0.00,,Overcast,340,2012-12-11 17:54:00
1:54 PM,36.0,26.1,67,30.04,10.0,West,5.8,-,N/A,,Overcast,260,2012-12-11 18:54:00
2:54 PM,36.0,27.0,70,30.06,10.0,NW,5.8,-,N/A,,Overcast,320,2012-12-11 19:54:00
3:08 PM,35.6,24.8,65,30.03,10.0,NW,11.5,20.7,N/A,,Overcast,310,2012-12-11 20:08:00
3:54 PM,36.0,21.9,57,30.09,10.0,West,8.1,-,N/A,,Mostly Cloudy,260,2012-12-11 20:54:00
4:54 PM,35.1,23.0,61,30.11,10.0,WNW,3.5,-,N/A,,Overcast,300,2012-12-11 21:54:00
5:54 PM,35.1,24.1,64,30.13,10.0,West,4.6,-,N/A,,Mostly Cloudy,280,2012-12-11 22:54:00
6:54 PM,34.0,24.1,67,30.16,10.0,Calm,Calm,-,N/A,,Scattered Clouds,0,2012-12-11 23:54:00
7:54 PM,28.9,25.0,85,30.17,10.0,Calm,Calm,-,N/A,,Clear,0,2012-12-12 00:54:00
8:54 PM,30.0,26.1,85,30.19,10.0,Calm,Calm,-,N/A,,Overcast,0,2012-12-12 01:54:00
9:54 PM,30.9,27.0,85,30.21,10.0,SE,3.5,-,N/A,,Overcast,140,2012-12-12 02:54:00
10:54 PM,32.0,27.0,82,30.20,10.0,ESE,4.6,-,N/A,,Overcast,120,2012-12-12 03:54:00
11:54 PM,32.0,26.1,79,30.21,10.0,South,3.5,-,N/A,,Overcast,180,2012-12-12 04:54:00